Time,TemperatureF,DewpointF,PressureIn,WindDirection,WindDirectionDegrees,WindSpeedMPH,WindSpeedGustMPH,Humidity,HourlyPrecipIn,Conditions,Clouds,dailyrainin,SoftwareType,DateUTC
2013-11-08 00:00:00,38.3,28.0,30.00,NE,51,1.0,6.0,66,0.00,,SKC,0.00,VWS V14.01,2013-11-08 05:00:00,
2013-11-08 07:48:00,32.4,28.7,30.12,ESE,122,0.0,0.0,86,0.00,,SKC,0.00,VWS V14.01,2013-11-08 12:48:00,
2013-11-08 07:49:00,32.5,28.8,30.12,ESE,122,0.0,1.0,86,0.00,,SKC,0.00,VWS V14.01,2013-11-08 12:49:00,
2013-11-08 07:50:00,32.5,28.8,30.12,ENE,72,0.0,5.0,86,0.00,,SKC,0.00,VWS V14.01,2013-11-08 12:50:00,
2013-11-08 07:55:00,32.8,29.1,30.12,ENE,78,0.0,5.0,86,0.00,,SKC,0.00,VWS V14.01,2013-11-08 12:55:00,
2013-11-08 08:00:00,33.1,29.1,30.13,ESE,104,1.0,5.0,85,0.00,,SKC,0.00,VWS V14.01,2013-11-08 13:00:00,
2013-11-08 08:05:00,33.2,29.2,30.13,ESE,106,2.0,5.0,85,0.00,,SKC,0.00,VWS V14.01,2013-11-08 13:05:00,
2013-11-08 08:10:00,33.4,29.1,30.13,ESE,112,0.0,5.0,84,0.00,,SKC,0.00,VWS V14.01,2013-11-08 13:10:00,
2013-11-08 08:16:00,33.7,29.4,30.14,ENE,65,0.0,5.0,84,0.00,,SKC,0.00,VWS V14.01,2013-11-08 13:16:00,
2013-11-08 08:21:00,34.0,29.4,30.14,East,84,0.0,5.0,83,0.00,,SKC,0.00,VWS V14.01,2013-11-08 13:21:00,
2013-11-08 08:26:00,34.6,30.0,30.14,ESE,112,1.0,7.0,83,0.00,,SKC,0.00,VWS V14.01,2013-11-08 13:26:00,
2013-11-08 08:31:00,34.9,30.0,30.14,ESE,121,1.0,7.0,82,0.00,,SKC,0.00,VWS V14.01,2013-11-08 13:31:00,
2013-11-08 08:36:00,34.9,29.4,30.14,SE,126,3.0,9.0,80,0.00,,SKC,0.00,VWS V14.01,2013-11-08 13:36:00,
2013-11-08 08:41:00,34.9,29.4,30.14,ESE,103,1.0,9.0,80,0.00,,SKC,0.00,VWS V14.01,2013-11-08 13:41:00,
2013-11-08 08:46:00,35.0,29.5,30.15,East,94,0.0,9.0,80,0.00,,SKC,0.00,VWS V14.01,2013-11-08 13:46:00,
2013-11-08 08:51:00,35.2,29.7,30.15,East,80,0.0,9.0,80,0.00,,SKC,0.00,VWS V14.01,2013-11-08 13:51:00,
2013-11-08 08:56:00,35.3,29.5,30.15,ENE,69,3.0,9.0,79,0.00,,SKC,0.00,VWS V14.01,2013-11-08 13:56:00,
2013-11-08 09:00:00,33.1,29.1,30.13,ESE,103,1.0,5.0,85,0.00,,SKC,0.00,VWS V14.01,2013-11-08 14:00:00,
2013-11-08 09:01:00,35.2,29.0,30.15,ESE,120,6.0,6.0,78,0.00,,SKC,0.00,VWS V14.01,2013-11-08 14:01:00,
2013-11-08 09:07:00,35.3,28.8,30.15,ENE,76,2.0,6.0,77,0.00,,SKC,0.00,VWS V14.01,2013-11-08 14:07:00,
2013-11-08 09:12:00,35.6,28.8,30.15,SE,134,2.0,7.0,76,0.00,,SKC,0.00,VWS V14.01,2013-11-08 14:12:00,
2013-11-08 09:17:00,35.9,28.8,30.16,East,86,3.0,7.0,75,0.00,,SKC,0.00,VWS V14.01,2013-11-08 14:17:00,
2013-11-08 09:22:00,36.5,28.7,30.16,ESE,112,7.0,7.0,73,0.00,,SKC,0.00,VWS V14.01,2013-11-08 14:22:00,
2013-11-08 09:27:00,37.0,28.8,30.16,NE,48,4.0,9.0,72,0.00,,SKC,0.00,VWS V14.01,2013-11-08 14:27:00,
2013-11-08 09:32:00,37.5,28.6,30.16,East,98,2.0,9.0,70,0.00,,SKC,0.00,VWS V14.01,2013-11-08 14:32:00,
2013-11-08 09:37:00,37.6,28.4,30.16,ESE,110,6.0,9.0,69,0.00,,SKC,0.00,VWS V14.01,2013-11-08 14:37:00,
2013-11-08 09:42:00,37.9,29.0,30.16,ESE,113,0.0,9.0,70,0.00,,SKC,0.00,VWS V14.01,2013-11-08 14:42:00,
2013-11-08 09:47:00,38.2,28.9,30.16,NE,56,1.0,9.0,69,0.00,,SKC,0.00,VWS V14.01,2013-11-08 14:47:00,
2013-11-08 09:53:00,38.6,28.6,30.16,SE,127,1.0,9.0,67,0.00,,SKC,0.00,VWS V14.01,2013-11-08 14:53:00,
2013-11-08 09:58:00,38.6,27.9,30.16,SE,127,5.0,9.0,65,0.00,,SKC,0.00,VWS V14.01,2013-11-08 14:58:00,
2013-11-08 10:00:00,35.2,29.0,30.15,East,92,6.0,9.0,78,0.00,,SKC,0.00,VWS V14.01,2013-11-08 15:00:00,
2013-11-08 10:03:00,38.6,27.9,30.16,ESE,123,6.0,6.0,65,0.00,,SKC,0.00,VWS V14.01,2013-11-08 15:03:00,
2013-11-08 10:08:00,38.6,27.5,30.16,ESE,117,6.0,8.0,64,0.00,,SKC,0.00,VWS V14.01,2013-11-08 15:08:00,
2013-11-08 10:13:00,38.6,27.5,30.16,East,98,2.0,12.0,64,0.00,,SKC,0.00,VWS V14.01,2013-11-08 15:13:00,
2013-11-08 10:18:00,38.8,27.7,30.17,East,87,2.0,12.0,64,0.00,,SKC,0.00,VWS V14.01,2013-11-08 15:18:00,
2013-11-08 10:23:00,38.9,27.0,30.17,ESE,112,4.0,12.0,62,0.00,,SKC,0.00,VWS V14.01,2013-11-08 15:23:00,
2013-11-08 10:28:00,38.9,26.6,30.17,East,94,5.0,12.0,61,0.00,,SKC,0.00,VWS V14.01,2013-11-08 15:28:00,
2013-11-08 10:33:00,39.1,27.6,30.17,ESE,113,2.0,12.0,63,0.00,,SKC,0.00,VWS V14.01,2013-11-08 15:33:00,
2013-11-08 10:38:00,39.1,27.2,30.17,ESE,120,6.0,12.0,62,0.00,,SKC,0.00,VWS V14.01,2013-11-08 15:38:00,
2013-11-08 10:44:00,39.5,26.8,30.17,ENE,65,2.0,12.0,60,0.00,,SKC,0.00,VWS V14.01,2013-11-08 15:44:00,
2013-11-08 10:49:00,39.8,25.8,30.17,East,94,2.0,12.0,57,0.00,,SKC,0.00,VWS V14.01,2013-11-08 15:49:00,
2013-11-08 10:54:00,40.2,27.8,30.17,East,82,2.0,12.0,61,0.00,,SKC,0.00,VWS V14.01,2013-11-08 15:54:00,
2013-11-08 10:59:00,40.8,27.2,30.17,SE,127,7.0,12.0,58,0.00,,SKC,0.00,VWS V14.01,2013-11-08 15:59:00,
2013-11-08 11:00:00,38.6,27.9,30.16,East,99,0.0,9.0,65,0.00,,SKC,0.00,VWS V14.01,2013-11-08 16:00:00,
2013-11-08 11:04:00,40.3,25.9,30.18,SE,130,4.0,10.0,56,0.00,,SKC,0.00,VWS V14.01,2013-11-08 16:04:00,
2013-11-08 11:09:00,39.9,26.8,30.18,ESE,123,4.0,10.0,59,0.00,,SKC,0.00,VWS V14.01,2013-11-08 16:09:00,
2013-11-08 11:14:00,39.8,26.2,30.18,ESE,123,7.0,11.0,58,0.00,,SKC,0.00,VWS V14.01,2013-11-08 16:14:00,
2013-11-08 11:19:00,39.5,26.8,30.18,ESE,108,3.0,11.0,60,0.00,,SKC,0.00,VWS V14.01,2013-11-08 16:19:00,
2013-11-08 11:24:00,39.5,26.0,30.18,ESE,117,5.0,11.0,58,0.00,,SKC,0.00,VWS V14.01,2013-11-08 16:24:00,
2013-11-08 11:29:00,39.5,25.5,30.18,ESE,113,6.0,11.0,57,0.00,,SKC,0.00,VWS V14.01,2013-11-08 16:29:00,
2013-11-08 11:34:00,39.5,25.5,30.18,ESE,102,6.0,11.0,57,0.00,,SKC,0.00,VWS V14.01,2013-11-08 16:34:00,
2013-11-08 11:40:00,39.2,24.4,30.18,ESE,111,5.0,11.0,55,0.00,,SKC,0.00,VWS V14.01,2013-11-08 16:40:00,
2013-11-08 11:45:00,39.1,24.7,30.18,ENE,77,3.0,11.0,56,0.00,,SKC,0.00,VWS V14.01,2013-11-08 16:45:00,
2013-11-08 11:50:00,39.2,25.7,30.18,ESE,117,5.0,11.0,58,0.00,,SKC,0.00,VWS V14.01,2013-11-08 16:50:00,
2013-11-08 11:55:00,39.3,26.6,30.18,ESE,119,1.0,11.0,60,0.00,,SKC,0.00,VWS V14.01,2013-11-08 16:55:00,
2013-11-08 12:00:00,39.2,24.4,30.18,SE,128,7.0,11.0,55,0.00,,SKC,0.00,VWS V14.01,2013-11-08 17:00:00,
2013-11-08 12:05:00,39.3,25.4,30.18,NE,42,2.0,8.0,57,0.00,,SKC,0.00,VWS V14.01,2013-11-08 17:05:00,
2013-11-08 12:10:00,39.5,25.1,30.18,ESE,117,9.0,9.0,56,0.00,,SKC,0.00,VWS V14.01,2013-11-08 17:10:00,
2013-11-08 12:15:00,39.5,26.0,30.17,SE,138,9.0,11.0,58,0.00,,SKC,0.00,VWS V14.01,2013-11-08 17:15:00,
2013-11-08 12:20:00,39.6,24.8,30.17,ESE,115,7.0,11.0,55,0.00,,SKC,0.00,VWS V14.01,2013-11-08 17:20:00,
2013-11-08 12:26:00,39.5,24.7,30.17,ESE,122,5.0,11.0,55,0.00,,SKC,0.00,VWS V14.01,2013-11-08 17:26:00,
2013-11-08 12:31:00,39.5,24.2,30.17,ESE,121,6.0,11.0,54,0.00,,SKC,0.00,VWS V14.01,2013-11-08 17:31:00,
2013-11-08 12:36:00,40.1,24.4,30.17,SE,135,9.0,11.0,53,0.00,,SKC,0.00,VWS V14.01,2013-11-08 17:36:00,
2013-11-08 12:41:00,40.3,24.1,30.17,East,98,2.0,11.0,52,0.00,,SKC,0.00,VWS V14.01,2013-11-08 17:41:00,
2013-11-08 12:46:00,40.3,25.0,30.16,ESE,121,9.0,11.0,54,0.00,,SKC,0.00,VWS V14.01,2013-11-08 17:46:00,
2013-11-08 12:51:00,40.2,23.5,30.16,SE,136,8.0,11.0,51,0.00,,SKC,0.00,VWS V14.01,2013-11-08 17:51:00,
2013-11-08 12:56:00,40.1,23.9,30.16,ESE,122,9.0,11.0,52,0.00,,SKC,0.00,VWS V14.01,2013-11-08 17:56:00,
2013-11-08 13:00:00,39.2,24.4,30.18,ESE,123,8.0,11.0,55,0.00,,SKC,0.00,VWS V14.01,2013-11-08 18:00:00,
2013-11-08 13:01:00,39.9,23.7,30.16,ENE,70,4.0,6.0,52,0.00,,SKC,0.00,VWS V14.01,2013-11-08 18:01:00,
2013-11-08 13:06:00,39.9,23.7,30.16,ESE,106,0.0,8.0,52,0.00,,SKC,0.00,VWS V14.01,2013-11-08 18:06:00,
2013-11-08 13:12:00,40.1,24.4,30.16,SE,142,2.0,8.0,53,0.00,,SKC,0.00,VWS V14.01,2013-11-08 18:12:00,
2013-11-08 13:17:00,40.2,25.3,30.16,SE,134,1.0,8.0,55,0.00,,SKC,0.00,VWS V14.01,2013-11-08 18:17:00,
2013-11-08 13:22:00,40.2,25.3,30.16,ESE,118,2.0,8.0,55,0.00,,SKC,0.00,VWS V14.01,2013-11-08 18:22:00,
2013-11-08 13:27:00,40.1,25.2,30.16,ESE,118,5.0,8.0,55,0.00,,SKC,0.00,VWS V14.01,2013-11-08 18:27:00,
2013-11-08 13:32:00,39.8,25.0,30.16,ESE,105,2.0,9.0,55,0.00,,SKC,0.00,VWS V14.01,2013-11-08 18:32:00,
2013-11-08 13:37:00,40.1,25.2,30.16,ENE,74,0.0,9.0,55,0.00,,SKC,0.00,VWS V14.01,2013-11-08 18:37:00,
2013-11-08 13:42:00,40.6,25.3,30.16,North,9,2.0,9.0,54,0.00,,SKC,0.00,VWS V14.01,2013-11-08 18:42:00,
2013-11-08 13:47:00,42.2,25.4,30.16,SE,127,11.0,11.0,51,0.00,,SKC,0.00,VWS V14.01,2013-11-08 18:47:00,
2013-11-08 13:52:00,41.8,24.5,30.16,ESE,109,0.0,11.0,50,0.00,,SKC,0.00,VWS V14.01,2013-11-08 18:52:00,
2013-11-08 13:58:00,41.6,24.8,30.16,East,93,2.0,11.0,51,0.00,,SKC,0.00,VWS V14.01,2013-11-08 18:58:00,
2013-11-08 14:00:00,39.9,23.7,30.16,East,91,3.0,11.0,52,0.00,,SKC,0.00,VWS V14.01,2013-11-08 19:00:00,
2013-11-08 14:03:00,41.5,25.2,30.15,SE,128,0.0,5.0,52,0.00,,SKC,0.00,VWS V14.01,2013-11-08 19:03:00,
2013-11-08 14:08:00,42.1,25.3,30.15,ESE,111,2.0,6.0,51,0.00,,SKC,0.00,VWS V14.01,2013-11-08 19:08:00,
2013-11-08 14:13:00,42.5,24.7,30.15,ESE,113,1.0,8.0,49,0.00,,SKC,0.00,VWS V14.01,2013-11-08 19:13:00,
2013-11-08 14:18:00,41.9,23.7,30.16,ESE,103,5.0,11.0,48,0.00,,SKC,0.00,VWS V14.01,2013-11-08 19:18:00,
2013-11-08 14:23:00,41.1,23.9,30.16,ENE,76,1.0,11.0,50,0.00,,SKC,0.00,VWS V14.01,2013-11-08 19:23:00,
2013-11-08 14:28:00,40.5,23.8,30.16,ESE,117,5.0,11.0,51,0.00,,SKC,0.00,VWS V14.01,2013-11-08 19:28:00,
2013-11-08 14:33:00,40.1,22.5,30.17,ESE,121,6.0,11.0,49,0.00,,SKC,0.00,VWS V14.01,2013-11-08 19:33:00,
2013-11-08 14:38:00,40.1,23.0,30.17,NE,39,0.0,11.0,50,0.00,,SKC,0.00,VWS V14.01,2013-11-08 19:38:00,
2013-11-08 14:43:00,40.3,24.1,30.17,East,96,7.0,12.0,52,0.00,,SKC,0.00,VWS V14.01,2013-11-08 19:43:00,
2013-11-08 14:49:00,40.5,24.3,30.17,SE,130,3.0,12.0,52,0.00,,SKC,0.00,VWS V14.01,2013-11-08 19:49:00,
2013-11-08 14:54:00,40.3,24.5,30.17,ESE,109,5.0,12.0,53,0.00,,SKC,0.00,VWS V14.01,2013-11-08 19:54:00,
2013-11-08 14:59:00,40.3,24.1,30.17,ESE,117,2.0,12.0,52,0.00,,SKC,0.00,VWS V14.01,2013-11-08 19:59:00,
2013-11-08 15:00:00,41.5,25.2,30.15,ESE,113,1.0,11.0,52,0.00,,SKC,0.00,VWS V14.01,2013-11-08 20:00:00,
2013-11-08 15:04:00,40.3,25.0,30.17,SE,136,4.0,7.0,54,0.00,,SKC,0.00,VWS V14.01,2013-11-08 20:04:00,
2013-11-08 15:09:00,40.5,24.3,30.17,ESE,123,2.0,7.0,52,0.00,,SKC,0.00,VWS V14.01,2013-11-08 20:09:00,
2013-11-08 15:14:00,40.5,22.9,30.17,NE,42,2.0,8.0,49,0.00,,SKC,0.00,VWS V14.01,2013-11-08 20:14:00,
2013-11-08 15:19:00,40.5,23.3,30.17,SE,136,7.0,8.0,50,0.00,,SKC,0.00,VWS V14.01,2013-11-08 20:19:00,
2013-11-08 15:24:00,40.3,24.5,30.17,SE,130,7.0,8.0,53,0.00,,SKC,0.00,VWS V14.01,2013-11-08 20:24:00,
2013-11-08 15:29:00,40.1,23.9,30.17,SE,124,2.0,8.0,52,0.00,,SKC,0.00,VWS V14.01,2013-11-08 20:29:00,
2013-11-08 15:35:00,40.1,23.9,30.16,SE,124,0.0,8.0,52,0.00,,SKC,0.00,VWS V14.01,2013-11-08 20:35:00,
2013-11-08 15:40:00,40.2,25.3,30.16,East,79,2.0,8.0,55,0.00,,SKC,0.00,VWS V14.01,2013-11-08 20:40:00,
2013-11-08 15:45:00,40.2,24.5,30.17,ESE,114,3.0,8.0,53,0.00,,SKC,0.00,VWS V14.01,2013-11-08 20:45:00,
2013-11-08 15:50:00,40.2,24.5,30.17,ESE,103,0.0,8.0,53,0.00,,SKC,0.00,VWS V14.01,2013-11-08 20:50:00,
2013-11-08 15:55:00,40.2,25.8,30.17,ESE,113,3.0,8.0,56,0.00,,SKC,0.00,VWS V14.01,2013-11-08 20:55:00,
2013-11-08 16:00:00,40.1,24.8,30.17,ESE,122,5.0,8.0,54,0.00,,SKC,0.00,VWS V14.01,2013-11-08 21:00:00,
2013-11-08 16:05:00,40.1,24.8,30.17,SE,135,5.0,9.0,54,0.00,,SKC,0.00,VWS V14.01,2013-11-08 21:05:00,
2013-11-08 16:10:00,40.2,24.9,30.17,SE,126,2.0,9.0,54,0.00,,SKC,0.00,VWS V14.01,2013-11-08 21:10:00,
2013-11-08 16:15:00,40.1,24.8,30.16,ESE,103,4.0,9.0,54,0.00,,SKC,0.00,VWS V14.01,2013-11-08 21:15:00,
2013-11-08 16:21:00,40.1,24.8,30.16,ESE,121,5.0,9.0,54,0.00,,SKC,0.00,VWS V14.01,2013-11-08 21:21:00,
2013-11-08 16:26:00,39.9,24.2,30.16,ESE,117,4.0,10.0,53,0.00,,SKC,0.00,VWS V14.01,2013-11-08 21:26:00,
2013-11-08 16:31:00,39.8,24.1,30.16,ESE,117,0.0,10.0,53,0.00,,SKC,0.00,VWS V14.01,2013-11-08 21:31:00,
2013-11-08 16:36:00,39.8,24.1,30.16,ESE,117,1.0,10.0,53,0.00,,SKC,0.00,VWS V14.01,2013-11-08 21:36:00,
2013-11-08 16:41:00,39.6,23.4,30.16,ESE,117,0.0,10.0,52,0.00,,SKC,0.00,VWS V14.01,2013-11-08 21:41:00,
2013-11-08 16:46:00,39.6,23.9,30.15,ESE,117,0.0,10.0,53,0.00,,SKC,0.00,VWS V14.01,2013-11-08 21:46:00,
2013-11-08 16:51:00,39.5,23.8,30.15,ESE,117,0.0,10.0,53,0.00,,SKC,0.00,VWS V14.01,2013-11-08 21:51:00,
2013-11-08 16:56:00,39.2,24.0,30.15,ENE,65,0.0,10.0,54,0.00,,SKC,0.00,VWS V14.01,2013-11-08 21:56:00,
2013-11-08 17:00:00,40.1,24.8,30.17,ESE,115,7.0,8.0,54,0.00,,SKC,0.00,VWS V14.01,2013-11-08 22:00:00,
2013-11-08 17:02:00,39.1,23.4,30.16,ENE,65,0.0,0.0,53,0.00,,SKC,0.00,VWS V14.01,2013-11-08 22:02:00,
2013-11-08 17:07:00,38.8,24.0,30.16,ENE,65,0.0,0.0,55,0.00,,SKC,0.00,VWS V14.01,2013-11-08 22:07:00,
2013-11-08 17:12:00,38.5,23.8,30.16,ENE,65,0.0,0.0,55,0.00,,SKC,0.00,VWS V14.01,2013-11-08 22:12:00,
2013-11-08 17:17:00,38.2,23.5,30.17,ENE,65,0.0,0.0,55,0.00,,SKC,0.00,VWS V14.01,2013-11-08 22:17:00,
2013-11-08 17:22:00,38.0,23.3,30.17,ENE,65,0.0,0.0,55,0.00,,SKC,0.00,VWS V14.01,2013-11-08 22:22:00,
2013-11-08 17:27:00,37.8,23.5,30.17,ENE,65,0.0,0.0,56,0.00,,SKC,0.00,VWS V14.01,2013-11-08 22:27:00,
2013-11-08 17:32:00,37.6,23.3,30.17,ENE,65,0.0,0.0,56,0.00,,SKC,0.00,VWS V14.01,2013-11-08 22:32:00,
2013-11-08 17:37:00,37.3,23.9,30.17,ENE,65,0.0,0.0,58,0.00,,SKC,0.00,VWS V14.01,2013-11-08 22:37:00,
2013-11-08 17:43:00,37.0,23.6,30.17,ENE,65,0.0,0.0,58,0.00,,SKC,0.00,VWS V14.01,2013-11-08 22:43:00,
2013-11-08 17:48:00,36.8,23.4,30.16,ENE,65,0.0,0.0,58,0.00,,SKC,0.00,VWS V14.01,2013-11-08 22:48:00,
2013-11-08 17:53:00,36.5,23.5,30.16,ENE,65,0.0,0.0,59,0.00,,SKC,0.00,VWS V14.01,2013-11-08 22:53:00,
2013-11-08 17:58:00,36.2,23.3,30.16,ENE,65,0.0,0.0,59,0.00,,SKC,0.00,VWS V14.01,2013-11-08 22:58:00,
2013-11-08 18:00:00,39.1,23.4,30.16,ENE,65,0.0,10.0,53,0.00,,SKC,0.00,VWS V14.01,2013-11-08 23:00:00,
2013-11-08 18:03:00,35.9,23.0,30.17,ENE,65,0.0,0.0,59,0.00,,SKC,0.00,VWS V14.01,2013-11-08 23:03:00,
2013-11-08 18:08:00,35.8,22.9,30.17,ENE,65,0.0,0.0,59,0.00,,SKC,0.00,VWS V14.01,2013-11-08 23:08:00,
2013-11-08 18:13:00,35.8,22.9,30.17,ENE,65,0.0,0.0,59,0.00,,SKC,0.00,VWS V14.01,2013-11-08 23:13:00,
2013-11-08 18:18:00,35.6,22.7,30.17,ENE,65,0.0,0.0,59,0.00,,SKC,0.00,VWS V14.01,2013-11-08 23:18:00,
2013-11-08 18:24:00,35.5,22.6,30.17,ENE,65,0.0,0.0,59,0.00,,SKC,0.00,VWS V14.01,2013-11-08 23:24:00,
2013-11-08 18:29:00,35.5,23.0,30.17,ENE,65,0.0,0.0,60,0.00,,SKC,0.00,VWS V14.01,2013-11-08 23:29:00,
2013-11-08 18:34:00,35.5,23.0,30.17,ENE,65,0.0,0.0,60,0.00,,SKC,0.00,VWS V14.01,2013-11-08 23:34:00,
2013-11-08 18:39:00,35.3,22.8,30.17,ENE,65,0.0,0.0,60,0.00,,SKC,0.00,VWS V14.01,2013-11-08 23:39:00,
2013-11-08 18:44:00,35.2,22.7,30.17,ENE,65,0.0,0.0,60,0.00,,SKC,0.00,VWS V14.01,2013-11-08 23:44:00,
2013-11-08 18:49:00,34.9,22.8,30.18,ENE,65,0.0,0.0,61,0.00,,SKC,0.00,VWS V14.01,2013-11-08 23:49:00,
2013-11-08 18:54:00,34.7,23.0,30.18,ENE,65,0.0,0.0,62,0.00,,SKC,0.00,VWS V14.01,2013-11-08 23:54:00,
2013-11-08 18:59:00,34.6,23.3,30.18,ENE,65,0.0,0.0,63,0.00,,SKC,0.00,VWS V14.01,2013-11-08 23:59:00,
2013-11-08 19:00:00,36.0,23.1,30.17,ENE,65,0.0,0.0,59,0.00,,SKC,0.00,VWS V14.01,2013-11-09 00:00:00,
2013-11-08 19:04:00,34.4,23.1,30.18,ENE,65,0.0,0.0,63,0.00,,SKC,0.00,VWS V14.01,2013-11-09 00:04:00,
2013-11-08 19:10:00,34.1,23.6,30.18,ENE,65,0.0,0.0,65,0.00,,SKC,0.00,VWS V14.01,2013-11-09 00:10:00,
2013-11-08 19:15:00,33.8,23.3,30.18,ENE,65,0.0,0.0,65,0.00,,SKC,0.00,VWS V14.01,2013-11-09 00:15:00,
2013-11-08 19:20:00,33.7,23.6,30.18,ENE,65,0.0,0.0,66,0.00,,SKC,0.00,VWS V14.01,2013-11-09 00:20:00,
2013-11-08 19:25:00,33.8,24.7,30.18,ENE,65,0.0,0.0,69,0.00,,SKC,0.00,VWS V14.01,2013-11-09 00:25:00,
2013-11-08 19:30:00,33.7,25.0,30.18,ENE,65,0.0,0.0,70,0.00,,SKC,0.00,VWS V14.01,2013-11-09 00:30:00,
2013-11-08 19:35:00,33.5,24.8,30.18,ENE,65,0.0,0.0,70,0.00,,SKC,0.00,VWS V14.01,2013-11-09 00:35:00,
2013-11-08 19:40:00,33.2,24.5,30.18,ENE,65,0.0,0.0,70,0.00,,SKC,0.00,VWS V14.01,2013-11-09 00:40:00,
2013-11-08 19:46:00,33.1,24.4,30.19,ENE,65,0.0,0.0,70,0.00,,SKC,0.00,VWS V14.01,2013-11-09 00:46:00,
2013-11-08 19:51:00,33.1,24.0,30.19,ENE,65,0.0,0.0,69,0.00,,SKC,0.00,VWS V14.01,2013-11-09 00:51:00,
2013-11-08 19:56:00,32.9,24.2,30.19,ENE,65,0.0,0.0,70,0.00,,SKC,0.00,VWS V14.01,2013-11-09 00:56:00,
2013-11-08 20:00:00,34.6,23.3,30.18,ENE,65,0.0,0.0,63,0.00,,SKC,0.00,VWS V14.01,2013-11-09 01:00:00,
2013-11-08 20:01:00,32.9,24.5,30.19,ENE,65,0.0,0.0,71,0.00,,SKC,0.00,VWS V14.01,2013-11-09 01:01:00,
2013-11-08 20:06:00,32.8,24.5,30.19,ENE,65,0.0,0.0,71,0.00,,SKC,0.00,VWS V14.01,2013-11-09 01:06:00,
2013-11-08 20:11:00,32.5,24.2,30.19,ENE,65,0.0,0.0,71,0.00,,SKC,0.00,VWS V14.01,2013-11-09 01:11:00,
2013-11-08 20:16:00,32.4,24.1,30.18,ENE,65,0.0,0.0,71,0.00,,SKC,0.00,VWS V14.01,2013-11-09 01:16:00,
2013-11-08 20:21:00,32.2,23.5,30.18,ENE,65,0.0,0.0,70,0.00,,SKC,0.00,VWS V14.01,2013-11-09 01:21:00,
2013-11-08 20:26:00,32.1,23.4,30.18,ENE,65,0.0,0.0,70,0.00,,SKC,0.00,VWS V14.01,2013-11-09 01:26:00,
2013-11-08 20:31:00,31.8,23.5,30.18,ENE,65,0.0,0.0,71,0.00,,SKC,0.00,VWS V14.01,2013-11-09 01:31:00,
2013-11-08 20:37:00,31.5,23.2,30.18,ENE,65,0.0,0.0,71,0.00,,SKC,0.00,VWS V14.01,2013-11-09 01:37:00,
2013-11-08 20:42:00,31.3,23.3,30.18,ENE,65,0.0,0.0,72,0.00,,SKC,0.00,VWS V14.01,2013-11-09 01:42:00,
2013-11-08 20:47:00,31.0,23.0,30.18,ENE,65,0.0,0.0,72,0.00,,SKC,0.00,VWS V14.01,2013-11-09 01:47:00,
2013-11-08 20:52:00,30.9,23.3,30.18,ENE,65,0.0,0.0,73,0.00,,SKC,0.00,VWS V14.01,2013-11-09 01:52:00,
2013-11-08 20:57:00,30.6,23.0,30.18,ENE,65,0.0,0.0,73,0.00,,SKC,0.00,VWS V14.01,2013-11-09 01:57:00,
2013-11-08 21:00:00,32.9,24.5,30.19,ENE,65,0.0,0.0,71,0.00,,SKC,0.00,VWS V14.01,2013-11-09 02:00:00,
2013-11-08 21:02:00,30.4,23.4,30.18,ENE,65,0.0,0.0,75,0.00,,SKC,0.00,VWS V14.01,2013-11-09 02:02:00,
2013-11-08 21:07:00,30.1,23.1,30.18,ENE,65,0.0,0.0,75,0.00,,SKC,0.00,VWS V14.01,2013-11-09 02:07:00,
2013-11-08 21:12:00,30.1,23.5,30.18,ENE,65,0.0,0.0,76,0.00,,SKC,0.00,VWS V14.01,2013-11-09 02:12:00,
2013-11-08 21:17:00,30.0,23.4,30.18,ENE,65,0.0,0.0,76,0.00,,SKC,0.00,VWS V14.01,2013-11-09 02:17:00,
2013-11-08 21:22:00,30.0,23.7,30.18,ENE,65,0.0,0.0,77,0.00,,SKC,0.00,VWS V14.01,2013-11-09 02:22:00,
2013-11-08 21:27:00,30.0,23.7,30.18,ENE,65,0.0,0.0,77,0.00,,SKC,0.00,VWS V14.01,2013-11-09 02:27:00,
2013-11-08 21:33:00,30.0,23.7,30.18,ENE,65,0.0,0.0,77,0.00,,SKC,0.00,VWS V14.01,2013-11-09 02:33:00,
2013-11-08 21:38:00,30.0,24.0,30.18,ENE,65,0.0,0.0,78,0.00,,SKC,0.00,VWS V14.01,2013-11-09 02:38:00,
2013-11-08 21:43:00,29.8,23.8,30.18,ENE,65,0.0,0.0,78,0.00,,SKC,0.00,VWS V14.01,2013-11-09 02:43:00,
2013-11-08 21:48:00,29.7,23.7,30.17,ENE,65,0.0,0.0,78,0.00,,SKC,0.00,VWS V14.01,2013-11-09 02:48:00,
2013-11-08 21:53:00,29.5,23.5,30.17,ENE,65,0.0,0.0,78,0.00,,SKC,0.00,VWS V14.01,2013-11-09 02:53:00,
2013-11-08 21:58:00,29.5,23.8,30.17,ENE,65,0.0,0.0,79,0.00,,SKC,0.00,VWS V14.01,2013-11-09 02:58:00,
2013-11-08 22:00:00,30.4,23.4,30.18,ENE,65,0.0,0.0,75,0.00,,SKC,0.00,VWS V14.01,2013-11-09 03:00:00,
2013-11-08 22:03:00,29.5,23.8,30.17,ENE,65,0.0,0.0,79,0.00,,SKC,0.00,VWS V14.01,2013-11-09 03:03:00,
2013-11-08 22:08:00,29.7,24.0,30.17,ENE,65,0.0,1.0,79,0.00,,SKC,0.00,VWS V14.01,2013-11-09 03:08:00,
2013-11-08 22:14:00,29.8,24.1,30.17,ENE,65,0.0,2.0,79,0.00,,SKC,0.00,VWS V14.01,2013-11-09 03:14:00,
2013-11-08 22:19:00,29.8,24.1,30.17,ENE,65,0.0,2.0,79,0.00,,SKC,0.00,VWS V14.01,2013-11-09 03:19:00,
2013-11-08 22:24:00,29.8,24.1,30.17,ENE,65,0.0,2.0,79,0.00,,SKC,0.00,VWS V14.01,2013-11-09 03:24:00,
2013-11-08 22:29:00,29.7,24.0,30.17,ENE,65,0.0,2.0,79,0.00,,SKC,0.00,VWS V14.01,2013-11-09 03:29:00,
2013-11-08 22:34:00,29.5,24.1,30.16,ENE,65,0.0,2.0,80,0.00,,SKC,0.00,VWS V14.01,2013-11-09 03:34:00,
2013-11-08 22:39:00,29.3,23.9,30.16,ENE,65,0.0,2.0,80,0.00,,SKC,0.00,VWS V14.01,2013-11-09 03:39:00,
2013-11-08 22:44:00,29.3,24.2,30.16,ENE,65,0.0,2.0,81,0.00,,SKC,0.00,VWS V14.01,2013-11-09 03:44:00,
2013-11-08 22:49:00,29.1,24.0,30.16,ENE,65,0.0,2.0,81,0.00,,SKC,0.00,VWS V14.01,2013-11-09 03:49:00,
2013-11-08 22:55:00,29.0,23.9,30.16,ENE,65,0.0,2.0,81,0.00,,SKC,0.00,VWS V14.01,2013-11-09 03:55:00,
2013-11-08 23:00:00,28.7,23.6,30.17,ENE,65,0.0,2.0,81,0.00,,SKC,0.00,VWS V14.01,2013-11-09 04:00:00,
2013-11-08 23:09:00,28.4,23.6,30.17,ENE,65,0.0,0.0,82,0.00,,SKC,0.00,VWS V14.01,2013-11-09 04:09:00,
2013-11-08 23:14:00,28.2,23.4,30.17,ENE,65,0.0,0.0,82,0.00,,SKC,0.00,VWS V14.01,2013-11-09 04:14:00,
2013-11-08 23:19:00,28.2,23.4,30.17,ENE,65,0.0,0.0,82,0.00,,SKC,0.00,VWS V14.01,2013-11-09 04:19:00,
2013-11-08 23:24:00,28.4,23.6,30.17,ENE,65,2.0,2.0,82,0.00,,SKC,0.00,VWS V14.01,2013-11-09 04:24:00,
2013-11-08 23:29:00,28.8,24.3,30.17,ENE,65,0.0,2.0,83,0.00,,SKC,0.00,VWS V14.01,2013-11-09 04:29:00,
2013-11-08 23:34:00,29.3,24.5,30.16,NNW,327,0.0,3.0,82,0.00,,SKC,0.00,VWS V14.01,2013-11-09 04:34:00,
2013-11-08 23:39:00,29.4,24.6,30.16,NW,315,1.0,3.0,82,0.00,,SKC,0.00,VWS V14.01,2013-11-09 04:39:00,
2013-11-08 23:45:00,29.3,24.2,30.16,NW,315,0.0,3.0,81,0.00,,SKC,0.00,VWS V14.01,2013-11-09 04:45:00,
2013-11-08 23:50:00,29.3,24.2,30.16,NW,315,1.0,3.0,81,0.00,,SKC,0.00,VWS V14.01,2013-11-09 04:50:00,
2013-11-08 23:55:00,29.3,24.5,30.16,NW,315,0.0,3.0,82,0.00,,SKC,0.00,VWS V14.01,2013-11-09 04:55:00,